Location: Astronomy Club of Akron Observatory
(40.9700°N, 81.5606°W)
Time: 12:48:31
(UTC-04:00)

Hubble Space Telescope - Visible Passes

Search period start: 15 October 2018 00:00
Search period end: 25 October 2018 00:00
Orbit: 537 x 541 km, 28.5° (Epoch: 14 October)

Date Brightness Start Highest point End Pass type
(mag) Time Alt. Az. Time Alt. Az. Time Alt. Az.
17 Oct 3.2 07:07:47 10° SSW 07:10:00 14° S 07:12:14 10° SE visible
18 Oct 3.2 06:57:13 10° SSW 06:59:29 14° S 07:01:44 10° SSE visible
19 Oct 3.1 06:46:44 10° SW 06:48:57 14° S 06:51:10 10° SSE visible
20 Oct 3.1 06:36:18 10° SW 06:38:25 14° S 06:40:32 10° SSE visible
21 Oct 3.1 06:26:10 11° SSW 06:27:53 13° S 06:29:48 10° SSE visible
22 Oct 3.1 06:16:25 11° SSW 06:17:20 12° S 06:18:56 10° SSE visible
23 Oct 3.2 06:06:42 11° SSW 06:06:47 11° SSW 06:07:48 10° S visible
